KB2UHF-8 Weather Reports


time (UTC)temp
C
wind
direction
speed
KPH
gust
KPH
rain 1hr
cm
rain 24hr
cm
rain mn
cm
humidity
%
barometer
mb
20260508054516 6 135 3.2 4.8 0.00 0.00 0.00 48 1011.4
20260508053516 6 135 4.8 6.4 0.00 0.00 0.00 45 1011.2
20260508052516 6 158 3.2 4.8 0.00 0.00 0.00 46 1011.4
20260508051516 6 158 3.2 4.8 0.00 0.00 0.00 45 1011.5
20260508050536 6 135 3.2 4.8 0.00 0.00 0.00 45 1011.6
20260508045516 7 135 4.8 6.4 0.00 0.00 0.00 42 1011.5
20260508044517 6 135 4.8 6.4 0.00 0.00 0.00 44 1011.4
20260508043518 7 135 4.8 6.4 0.00 0.00 0.00 41 1011.5
20260508042516 7 113 3.2 4.8 0.00 0.00 0.00 40 1011.6
20260508041518 7 113 3.2 4.8 0.00 0.00 0.00 40 1011.7
20260508040516 7 113 3.2 4.8 0.00 0.00 0.00 39 1011.8
20260508035537 8 113 3.2 4.8 0.00 0.00 0.00 38 1011.8
20260508034516 8 45 1.6 3.2 0.00 0.00 0.00 37 1011.8
20260508033516 8 0 1.6 3.2 0.00 0.00 0.00 37 1011.7
20260508032516 8 0.0 0.0 0.00 0.00 0.00 37 1011.8
20260508031537 8 0.0 0.0 0.00 0.00 0.00 37 1011.6
20260508030518 8 0 1.6 4.8 0.00 0.00 0.00 37 1011.7
20260508025516 8 0 1.6 4.8 0.00 0.00 0.00 36 1011.6
20260508024518 9 338 3.2 3.2 0.00 0.00 0.00 36 1011.5
20260508023516 9 338 3.2 3.2 0.00 0.00 0.00 36 1011.4
20260508022536 9 338 3.2 3.2 0.00 0.00 0.00 36 1011.3
20260508021517 9 338 3.2 4.8 0.00 0.00 0.00 37 1011.2
20260508020516 9 338 4.8 8.0 0.00 0.00 0.00 37 1011.0
20260508015516 10 338 4.8 8.0 0.00 0.00 0.00 36 1010.8
20260508014518 10 338 4.8 4.8 0.00 0.00 0.00 36 1010.7
20260508013516 10 338 4.8 6.4 0.00 0.00 0.00 37 1010.5
20260508012516 10 338 6.4 8.0 0.00 0.00 0.00 37 1010.5
20260508011516 10 338 6.4 8.0 0.00 0.00 0.00 38 1010.4
20260508010516 10 338 6.4 8.0 0.00 0.00 0.00 37 1010.4
20260508005516 11 338 6.4 12.9 0.00 0.00 0.00 37 1010.2
20260508004516 11 338 8.0 16.1 0.00 0.00 0.00 35 1010.0
20260508003536 11 338 8.0 14.5 0.00 0.00 0.00 34 1009.8
20260508002516 12 338 6.4 14.5 0.00 0.00 0.00 34 1009.8
20260508001518 12 293 6.4 16.1 0.00 0.00 0.00 32 1009.8
20260508000516 12 315 8.0 16.1 0.00 0.00 0.00 32 1009.7
20260507235516 13 338 8.0 17.7 0.00 0.00 0.00 32 1009.6
20260507234516 13 315 11.3 17.7 0.00 0.00 0.00 30 1009.8
20260507233518 13 315 8.0 17.7 0.00 0.00 0.00 30 1009.9
20260507232558 13 293 11.3 24.1 0.00 0.00 0.00 28 1009.7
20260507231516 13 293 16.1 24.1 0.00 0.00 0.00 29 1009.7
20260507230516 13 293 9.7 22.5 0.00 0.00 0.00 29 1009.8
20260507225516 13 293 6.4 20.9 0.00 0.00 0.00 31 1009.8
20260507224516 14 293 9.7 24.1 0.00 0.00 0.00 30 1009.9
20260507223518 13 293 11.3 19.3 0.00 0.00 0.00 31 1009.9
20260507222516 13 270 9.7 19.3 0.00 0.00 0.00 32 1009.7
20260507221516 13 293 12.9 30.6 0.00 0.00 0.00 32 1009.7
20260507220537 13 270 14.5 25.7 0.00 0.00 0.00 30 1009.8
20260507215516 13 293 14.5 25.7 0.00 0.00 0.00 32 1009.6
20260507214516 13 270 16.1 32.2 0.00 0.00 0.00 32 1009.6
20260507213516 14 270 11.3 27.4 0.00 0.00 0.00 33 1009.6
20260507212516 13 270 14.5 29.0 0.00 0.00 0.00 35 1009.7
20260507211536 14 293 9.7 25.7 0.00 0.00 0.00 38 1009.6
20260507210517 13 315 14.5 25.7 0.00 0.00 0.00 35 1009.5
20260507205516 13 293 9.7 22.5 0.00 0.00 0.00 37 1009.6
20260507204516 13 270 11.3 20.9 0.00 0.00 0.00 36 1009.7
20260507203516 13 270 9.7 17.7 0.00 0.00 0.00 41 1009.8
20260507202517 13 315 12.9 24.1 0.00 0.00 0.00 42 1009.9
20260507201517 13 315 11.3 20.9 0.00 0.00 0.00 40 1010.1
20260507200516 13 315 9.7 22.5 0.00 0.00 0.00 40 1010.1
20260507195536 12 293 12.9 25.7 0.00 0.00 0.00 40 1010.3
20260507194516 13 270 12.9 32.2 0.00 0.00 0.00 37 1010.2
20260507193516 13 270 8.0 19.3 0.00 0.00 0.00 41 1010.3
20260507192516 12 338 11.3 24.1 0.00 0.00 0.00 42 1010.3
20260507191516 12 293 6.4 14.5 0.00 0.00 0.00 43 1010.4
20260507190516 12 315 12.9 29.0 0.00 0.00 0.00 45 1010.5
20260507185516 12 225 8.0 17.7 0.00 0.00 0.00 42 1010.6
20260507184516 12 270 8.0 19.3 0.00 0.00 0.00 42 1010.7
20260507183516 11 270 9.7 29.0 0.00 0.00 0.00 44 1010.8
20260507182516 12 270 11.3 22.5 0.00 0.00 0.00 45 1011.0
20260507181516 11 248 8.0 17.7 0.00 0.00 0.00 45 1010.9
20260507180515 11 293 6.4 14.5 0.00 0.00 0.00 46 1011.1
20260507175516 11 270 6.4 20.9 0.00 0.00 0.00 45 1011.2
20260507174515 11 338 4.8 14.5 0.00 0.00 0.00 47 1011.4
20260507173517 11 270 8.0 19.3 0.00 0.00 0.00 45 1011.5
20260507172535 11 225 9.7 17.7 0.00 0.00 0.00 46 1011.7
20260507171515 11 0 4.8 8.0 0.00 0.00 0.00 48 1011.7
20260507170536 10 113 6.4 12.9 0.00 0.00 0.00 50 1011.9
20260507165536 10 90 8.0 16.1 0.00 0.00 0.00 52 1012.0
20260507164515 10 68 9.7 19.3 0.00 0.00 0.00 50 1012.0
20260507163515 9 90 9.7 14.5 0.00 0.00 0.00 50 1011.9
20260507162536 9 90 4.8 16.1 0.00 0.00 0.00 51 1011.9
20260507161516 9 315 4.8 12.9 0.00 0.00 0.00 48 1011.9
20260507160515 9 0 3.2 8.0 0.00 0.00 0.00 51 1012.2
20260507155516 9 68 8.0 14.5 0.00 0.00 0.00 48 1012.3
20260507154517 9 45 4.8 14.5 0.00 0.00 0.00 50 1012.6
20260507153535 9 270 3.2 9.7 0.00 0.00 0.00 46 1012.6
20260507152516 10 135 4.8 9.7 0.00 0.00 0.00 48 1012.6
20260507151515 8 293 6.4 11.3 0.00 0.00 0.00 49 1012.7
20260507150515 8 315 4.8 8.0 0.00 0.00 0.00 50 1012.9
20260507145515 8 45 4.8 11.3 0.00 0.00 0.00 50 1013.1
20260507144515 8 90 1.6 11.3 0.00 0.00 0.00 53 1013.2
20260507143515 8 248 3.2 6.4 0.00 0.00 0.00 52 1013.1
20260507142515 8 158 4.8 9.7 0.00 0.00 0.00 56 1013.3
20260507141516 7 0.0 4.8 0.00 0.00 0.00 57 1013.6
20260507140515 7 113 1.6 8.0 0.00 0.00 0.00 61 1013.6
20260507135636 6 113 1.6 4.8 0.00 0.00 0.00 63 1013.6
20260507134515 6 90 3.2 4.8 0.00 0.00 0.00 63 1013.5
20260507133515 5 0.0 4.8 0.00 0.00 0.00 66 1013.6
20260507132515 4 113 3.2 6.4 0.00 0.00 0.00 68 1013.5
20260507131515 3 203 1.6 3.2 0.00 0.00 0.00 69 1013.5
20260507130515 3 248 1.6 6.4 0.00 0.00 0.00 69 1013.9
20260507125515 3 180 1.6 6.4 0.00 0.00 0.00 70 1013.9
20260507124517 3 158 1.6 6.4 0.00 0.00 0.00 71 1013.8
20260507123517 3 158 1.6 8.0 0.00 0.00 0.00 71 1013.7
20260507122517 3 180 1.6 8.0 0.00 0.00 0.00 72 1013.6
20260507121517 2 0.0 3.2 0.00 0.00 0.00 73 1013.5
20260507120519 1 0.0 0.0 0.00 0.00 0.00 73 1013.6
20260507115517 1 0.0 3.2 0.00 0.00 0.00 75 1013.5
20260507114517 1 225 1.6 6.4 0.00 0.00 0.00 74 1013.6
20260507113517 1 225 4.8 9.7 0.00 0.00 0.00 73 1013.6
20260507112517 1 225 4.8 14.5 0.00 0.00 0.00 73 1013.6
20260507111517 1 225 6.4 12.9 0.00 0.00 0.00 72 1013.6
20260507110537 1 225 4.8 11.3 0.00 0.00 0.00 73 1013.6
20260507105517 1 225 4.8 14.5 0.00 0.00 0.00 74 1013.5
20260507104517 1 225 4.8 9.7 0.00 0.00 0.00 75 1013.5
20260507103518 1 225 4.8 9.7 0.00 0.00 0.00 75 1013.5
20260507102517 0 225 4.8 9.7 0.00 0.00 0.00 76 1013.5
20260507101517 0 225 3.2 6.4 0.00 0.00 0.00 76 1013.6
20260507100517 0 225 4.8 9.7 0.00 0.00 0.00 77 1013.7
20260507095517 0 225 1.6 6.4 0.00 0.00 0.00 78 1013.6
20260507094517 0 0.0 4.8 0.00 0.00 0.00 78 1013.6
20260507093518 0 225 3.2 6.4 0.00 0.00 0.00 78 1013.7
20260507092517 0 225 3.2 6.4 0.00 0.00 0.00 78 1013.9
20260507091517 0 0.0 3.2 0.00 0.00 0.00 80 1013.9
20260507090517 0 0.0 0.0 0.00 0.00 0.00 81 1014.0
20260507085517 0 248 1.6 3.2 0.00 0.00 0.00 81 1014.0
20260507084517 0 0.0 3.2 0.00 0.00 0.00 82 1014.1
20260507083537 0 248 3.2 6.4 0.00 0.00 0.00 81 1014.0
20260507082517 0 0.0 0.0 0.00 0.00 0.00 79 1014.2
20260507081517 0 0.0 3.2 0.00 0.00 0.00 80 1014.1
20260507080517 -1 0.0 1.6 0.00 0.00 0.00 82 1014.2
20260507075517 -1 225 3.2 4.8 0.00 0.00 0.00 83 1014.2
20260507074517 -1 248 3.2 4.8 0.00 0.00 0.00 82 1014.2
20260507073517 -1 0.0 0.0 0.00 0.00 0.00 82 1014.3
20260507072517 -1 0.0 3.2 0.00 0.00 0.00 80 1014.1
20260507071517 -1 248 1.6 3.2 0.00 0.00 0.00 78 1014.2
20260507070517 0 180 3.2 4.8 0.00 0.00 0.00 74 1014.3
20260507065517 0 0.0 3.2 0.00 0.00 0.00 74 1014.4
20260507064517 0 0.0 1.6 0.00 0.00 0.00 74 1014.5
20260507063518 0 248 1.6 4.8 0.00 0.00 0.00 74 1014.6
20260507062517 0 248 1.6 3.2 0.00 0.00 0.00 72 1014.6
20260507061517 0 0.0 0.0 0.00 0.00 0.00 71 1014.8
20260507060517 0 0.0 0.0 0.00 0.00 0.00 71 1014.8
20260507055517 0 248 1.6 3.2 0.00 0.00 0.00 71 1014.7